Powrót do katalogu

COSMOS 1903

AktywnyMilitariaHEO
NORAD 18701·PAYLOAD·🇷🇺 Russia

Wystrzelony Dec 21, 1987 z Plesetsk Cosmodrome

Loading…

Następne Przeloty (najbliższe 24 godziny)

TLE

ŚwieżeSource: Space-Track

Epoka: Sep 12, 2026, 19:53 UTC

1 18701U 87105A   26255.82857467  .00000086  00000-0  00000-0 0  9999
2 18701  69.0332 191.0416 4404566  92.9363 316.6355  2.00784172284436

Śledź COSMOS 1903 w czasie rzeczywistym z AllMySat

Download on the App Store